This demonstration page uses our WeatherBlox Daily Observations layout. Learn more.

Left ArrowRight Arrow

39.01783, -85.05884

Hourly Observations for April 14, 2021

Temp ( °F °C ) Dew Point ( °F °C ) Humidity (%) Winds ( mph kmh ) Pressure ( in mb ) Visibility ( mi km ) Precip ( " mm )
12:52 am 00:52 Partly Cloudy 52 11.1 39 3.9 61 61 Calm 30.09 1019 10 16.0934 0 0
1:52 am 01:52 Partly Cloudy 53 11.7 38 3.3 57 57 NNW 6 9 30.08 1019 10 16.0934 0 0
2:52 am 02:52 Cloudy 54 12.2 34 1.1 47 47 NNW 9 15 30.09 1019 10 16.0934 0 0
3:52 am 03:52 Cloudy with Light Rain 53 11.7 34 1.1 48 48 N 10 17 30.1 1019 10 16.0934 0.001 0.001
4:52 am 04:52 Cloudy 52 11.1 33 0.6 49 49 NNE 9 15 30.09 1019 10 16.0934 0.001 0.001
5:52 am 05:52 Cloudy 52 11.1 34 1.1 50 50 N 8 13 30.1 1019 10 16.0934 0 0
6:52 am 06:52 Cloudy 52 11.1 33 0.6 49 49 NE 6 9 30.11 1020 10 16.0934 0 0
7:52 am 07:52 Cloudy 51 10.6 35 1.7 54 54 NNE 7 11 30.12 1020 10 16.0934 0 0
8:52 am 08:52 Cloudy 52 11.1 36 2.2 55 55 Calm 30.14 1021 10 16.0934 0 0
9:52 am 09:52 Cloudy 53 11.7 37 2.8 55 55 SE 5 7 30.12 1020 10 16.0934 0 0
10:52 am 10:52 Cloudy 54 12.2 36 2.2 51 51 ESE 3 6 30.12 1020 10 16.0934 0 0
11:52 am 11:52 Cloudy 54 12.2 37 2.8 53 53 SSW 7 11 30.12 1020 10 16.0934 0 0
12:52 pm 12:52 Cloudy 54 12.2 38 3.3 55 55 S 6 9 30.1 1019 10 16.0934 0 0
1:52 pm 13:52 Mostly Cloudy 55 12.8 39 3.9 55 55 S 9 15 30.06 1018 10 16.0934 0 0
2:52 pm 14:52 Mostly Cloudy 58 14.4 38 3.3 48 48 SW 7 11 30.04 1017 10 16.0934 0 0
3:52 pm 15:52 Mostly Cloudy 59 15 40 4.4 49 49 SSW 8 13 29.99 1016 10 16.0934 0 0
4:52 pm 16:52 Partly Cloudy 61 16.1 39 3.9 44 44 W 7 11 29.98 1015 10 16.0934 0 0
5:52 pm 17:52 Partly Cloudy 62 16.7 40 4.4 44 44 SW 12 19 29.98 1015 10 16.0934 0 0
6:52 pm 18:52 Mostly Sunny 58 14.4 43 6.1 58 58 S 9 15 29.96 1015 10 16.0934 0 0
7:52 pm 19:52 Mostly Sunny 55 12.8 43 6.1 64 64 SSW 8 13 29.95 1014 10 16.0934 0 0
8:52 pm 20:52 Mostly Clear 52 11.1 42 5.6 69 69 SW 7 11 29.97 1015 10 16.0934 0 0
9:52 pm 21:52 Mostly Clear 50 10 42 5.6 74 74 WSW 3 6 29.98 1015 10 16.0934 0 0
10:52 pm 22:52 Mostly Clear 48 8.9 42 5.6 80 80 SSW 5 7 29.98 1015 10 16.0934 0 0
11:52 pm 23:52 Mostly Clear 48 8.9 35 1.7 61 61 NW 9 15 29.96 1015 10 16.0934 0 0

Powered by AerisWeather